Ord, NE

1:24 AM CST on December 18, 2017 (GMT -0600)
Sharp

Weather History for KODX - August, 2013

Change the Weather History Date:

Wednesday, August 21, 2013

  Actual Average Record
Temperature  
Mean Temperature 77 °F 72 °F  
Max Temperature 90 °F 85 °F 95 °F (2010)
Min Temperature 64 °F 60 °F 43 °F (2016)
Degree Days  
Heating Degree Days 0 0  
Month to date heating degree days 0 0  
Since 1 June heating degree days 54 42  
Since 1 July heating degree days 7 5  
Cooling Degree Days 12 8  
Month to date cooling degree days 127 191  
Year to date cooling degree days 615 691  
Since 1 June cooling degree days 568 650  
Growing Degree Days 26 (Base 50)    
Moisture  
Dew Point 68 °F    
Average Humidity 74    
Maximum Humidity 93    
Minimum Humidity 55    
Precipitation  
Precipitation 0.20 in 0.11 in 1.63 in (1984)
Month to date precipitation 2.98 2.22  
Year to date precipitation 18.64 17.97  
Sea Level Pressure  
Sea Level Pressure 29.91 in    
Wind  
Wind Speed 7 mph (SE)    
Max Wind Speed 29 mph    
Max Gust Speed 38 mph    
Visibility 10 miles    
Events Rain , Thunderstorm    
T = Trace of Precipitation, MM = Missing Value Source: NWS Daily Summary

Daily Weather History Graph

Daily Weather History Graph

Search for Another Location

Airport or City:

Trip Planner

Search our weather history database for the weather conditions in past years. The results will help you decide how hot, cold, wet, or windy it might be!

Date:

Astronomy

Aug. 21, 2013 Rise Set
Actual Time 6:50 AM CDT 8:26 PM CDT
Civil Twilight 6:21 AM CDT 8:55 PM CDT
Nautical Twilight 5:46 AM CDT 9:30 PM CDT
Astronomical Twilight 5:08 AM CDT 10:08 PM CDT
Moon 8:33 PM CDT (8/21) 7:34 AM CDT (8/21)
Length of Visible Light 14h 33m
Length of Day
13h 35m
Waxing Gibbous, 99% of the Moon is Illuminated
Aug 21
Waxing Gibbous
Aug 28
Last Quarter
Sep 5
New
Sep 12
First Quarter
Sep 19
Full

Hourly Weather History & Observations

Time (CDT) Temp. Heat Index Dew Point Humidity Pressure Visibility Wind Dir Wind Speed Gust Speed Precip Events Conditions
12:53 AM 73.9 °F - 66.0 °F 76% 29.88 in 10.0 mi Calm Calm - N/A   Clear
1:53 AM 73.0 °F - 64.9 °F 76% 29.90 in 10.0 mi SSE 5.8 mph - N/A   Clear
2:53 AM 72.0 °F - 64.9 °F 78% 29.89 in 10.0 mi South 3.5 mph - N/A   Clear
3:53 AM 69.1 °F - 64.0 °F 84% 29.89 in 10.0 mi Calm Calm - N/A   Clear
4:53 AM 68.0 °F - 64.9 °F 90% 29.90 in 9.0 mi ESE 4.6 mph - N/A   Clear
5:53 AM 68.0 °F - 64.0 °F 87% 29.92 in 8.0 mi Calm Calm - N/A   Clear
6:53 AM 64.9 °F - 63.0 °F 93% 29.92 in 6.0 mi Calm Calm - N/A   Clear
7:53 AM 68.0 °F - 64.0 °F 87% 29.93 in 7.0 mi SSE 5.8 mph - N/A   Clear
8:53 AM 72.0 °F - 66.0 °F 81% 29.94 in 9.0 mi South 5.8 mph - N/A   Clear
9:53 AM 77.0 °F - 66.0 °F 69% 29.93 in 10.0 mi South 11.5 mph 16.1 mph N/A   Clear
10:53 AM 79.0 °F - 66.0 °F 64% 29.94 in 10.0 mi South 9.2 mph - N/A   Clear
11:53 AM 82.0 °F 84.5 °F 66.9 °F 60% 29.93 in 10.0 mi South 10.4 mph - N/A   Clear
12:53 PM 84.0 °F 87.0 °F 68.0 °F 58% 29.92 in 10.0 mi South 9.2 mph - N/A   Clear
1:53 PM 86.0 °F 90.7 °F 70.0 °F 59% 29.91 in 10.0 mi South 10.4 mph - N/A   Partly Cloudy
2:53 PM 87.1 °F 92.0 °F 70.0 °F 57% 29.92 in 10.0 mi South 10.4 mph - N/A   Clear
3:53 PM 88.0 °F 93.8 °F 71.1 °F 57% 29.91 in 10.0 mi SSE 11.5 mph - N/A   Clear
4:53 PM 88.0 °F 92.9 °F 70.0 °F 55% 29.89 in 10.0 mi SE 10.4 mph - N/A   Clear
5:53 PM 88.0 °F 93.8 °F 71.1 °F 57% 29.88 in 10.0 mi SE 11.5 mph - N/A   Clear
6:53 PM 86.0 °F 92.2 °F 72.0 °F 63% 29.89 in 10.0 mi SE 9.2 mph - N/A   Clear
7:53 PM 82.9 °F 88.8 °F 73.0 °F 72% 29.87 in 10.0 mi ESE 4.6 mph - N/A   Clear
8:53 PM 80.1 °F 84.2 °F 73.0 °F 79% 29.88 in 10.0 mi East 3.5 mph - N/A   Partly Cloudy
9:53 PM 79.0 °F - 73.0 °F 82% 29.87 in 10.0 mi East 3.5 mph - N/A   Partly Cloudy
10:27 PM 75.2 °F - 69.8 °F 83% 29.96 in 10.0 mi North 28.8 mph 38.0 mph N/A Thunderstorm Scattered Clouds
10:42 PM 75.2 °F - 66.2 °F 73% 29.96 in 10.0 mi NNW 11.5 mph - N/A   Mostly Cloudy
10:53 PM 73.0 °F - 64.9 °F 76% 29.95 in 10.0 mi North 11.5 mph 26.5 mph N/A Thunderstorm Thunderstorm
11:53 PM 68.0 °F - 66.0 °F 93% 29.99 in 7.0 mi ENE 9.2 mph 25.3 mph 0.18 in Rain , Thunderstorm Light Thunderstorms and Rain